Carver, MA

5:01 AM EDT on September 28, 2016 (GMT -0400)
Plymouth Municipal

Weather History for KPYM - October, 2013

Change the Weather History Date:

Friday, October 4, 2013

  Actual Average Record
Temperature  
Mean Temperature 56 °F -  
Max Temperature 68 °F 67 °F 85 °F (1959)
Min Temperature 46 °F 46 °F 33 °F (1974)
Degree Days  
Heating Degree Days 9    
Growing Degree Days 6 (Base 50)    
Moisture  
Dew Point 53 °F    
Average Humidity 86    
Maximum Humidity 94    
Minimum Humidity 59    
Precipitation  
Precipitation 0.90 in - - ()
Sea Level Pressure  
Sea Level Pressure 30.06 in    
Wind  
Wind Speed 1 mph (NNE)    
Max Wind Speed 7 mph    
Max Gust Speed -    
Visibility 6 miles    
Events Rain    
Averages and records for this station are not official NWS values.
T = Trace of Precipitation, MM = Missing Value Source: NWS Daily Summary

Daily Weather History Graph

Daily Weather History Graph

Search for Another Location

Airport or City:

Trip Planner

Search our weather history database for the weather conditions in past years. The results will help you decide how hot, cold, wet, or windy it might be!

Date:

Astronomy

Oct. 04, 2013 Rise Set
Actual Time 6:43 AM EDT 6:19 PM EDT
Civil Twilight 6:15 AM EDT 6:46 PM EDT
Nautical Twilight 5:43 AM EDT 7:19 PM EDT
Astronomical Twilight 5:10 AM EDT 7:51 PM EDT
Moon 6:15 AM EDT (10/4) 5:59 PM EDT (10/4)
Length of Visible Light 12h 31m
Length of Day
11h 35m
Waning Crescent, 0% of the Moon is Illuminated
Oct 4
Waning Crescent
Oct 4
New
Oct 11
First Quarter
Oct 18
Full
Oct 26
Last Quarter

Hourly Weather History & Observations

Time (EDT) Temp. Dew Point Humidity Pressure Visibility Wind Dir Wind Speed Gust Speed Precip Events Conditions
12:52 AM 50.0 °F 46.0 °F 86% 30.06 in 10.0 mi Calm Calm - N/A   Clear
1:52 AM 50.0 °F 46.0 °F 86% 30.07 in 10.0 mi Calm Calm - N/A   Clear
2:52 AM 48.9 °F 44.1 °F 83% 30.06 in 10.0 mi Calm Calm - N/A   Clear
3:52 AM 48.0 °F 45.0 °F 89% 30.05 in 10.0 mi Calm Calm - N/A   Clear
4:52 AM 48.0 °F 44.1 °F 86% 30.06 in 10.0 mi Calm Calm - N/A   Clear
5:52 AM 46.9 °F 44.1 °F 90% 30.06 in 10.0 mi Calm Calm - N/A   Clear
6:52 AM 46.9 °F 43.0 °F 86% 30.06 in 10.0 mi Calm Calm - N/A   Clear
7:52 AM 53.1 °F 48.9 °F 86% 30.07 in 10.0 mi Calm Calm - N/A   Clear
8:52 AM 61.0 °F 53.1 °F 75% 30.08 in 10.0 mi Calm Calm - N/A   Mostly Cloudy
9:52 AM 66.0 °F 51.1 °F 59% 30.09 in 10.0 mi Calm Calm - N/A   Overcast
10:52 AM 66.9 °F 53.1 °F 61% 30.07 in 10.0 mi Calm Calm - N/A   Overcast
11:52 AM 66.9 °F 54.0 °F 63% 30.06 in 10.0 mi NNE 5.8 mph - N/A   Mostly Cloudy
12:32 PM 60.8 °F 55.4 °F 82% 30.09 in 1.8 mi North 4.6 mph - 0.06 in Rain Heavy Rain
12:45 PM 60.8 °F 55.4 °F 82% 30.08 in 2.5 mi NNE 3.5 mph - 0.12 in Rain Rain
12:52 PM 60.1 °F 55.0 °F 83% 30.08 in 2.5 mi North 3.5 mph - 0.15 in Rain Rain
12:59 PM 60.8 °F 55.4 °F 82% 30.08 in 3.0 mi NNE 3.5 mph - 0.04 in Rain Rain
1:30 PM 59.0 °F 53.6 °F 82% 30.07 in 7.0 mi North 5.8 mph - 0.05 in Rain Light Rain
1:48 PM 59.0 °F 55.4 °F 88% 30.06 in 6.0 mi NE 5.8 mph - 0.07 in Rain Light Rain
1:52 PM 59.0 °F 55.0 °F 87% 30.06 in 6.0 mi NNE 5.8 mph - 0.07 in Rain Light Rain
2:03 PM 57.2 °F 53.6 °F 88% 30.06 in 1.8 mi NNE 6.9 mph - 0.09 in Rain Heavy Rain
2:27 PM 57.2 °F 53.6 °F 88% 30.07 in 3.0 mi North 6.9 mph - 0.28 in Rain Rain
2:29 PM 57.2 °F 53.6 °F 88% 30.06 in 2.5 mi NNE 4.6 mph - 0.31 in Rain Light Rain
2:34 PM 57.2 °F 53.6 °F 88% 30.05 in 1.8 mi ENE 4.6 mph - 0.36 in Rain Heavy Rain
2:42 PM 57.2 °F 53.6 °F 88% 30.06 in 1.2 mi North 5.8 mph - 0.44 in Rain Heavy Rain
2:52 PM 57.0 °F 54.0 °F 89% 30.06 in 3.0 mi NE 3.5 mph - 0.47 in Rain Light Rain
3:00 PM 57.2 °F 53.6 °F 88% 30.05 in 1.8 mi ENE 3.5 mph - 0.07 in Rain Heavy Rain
3:11 PM 57.2 °F 55.4 °F 94% 30.05 in 2.0 mi Calm Calm - 0.14 in Rain Rain
3:28 PM 57.2 °F 55.4 °F 94% 30.04 in 5.0 mi Calm Calm - 0.18 in Rain Light Rain
3:44 PM 57.2 °F 55.4 °F 94% 30.04 in 6.0 mi ESE 4.6 mph - 0.21 in Rain Light Rain
3:52 PM 57.9 °F 55.9 °F 93% 30.04 in 10.0 mi East 3.5 mph - 0.21 in   Overcast
4:52 PM 60.1 °F 55.9 °F 86% 30.05 in 10.0 mi NNE 3.5 mph - N/A   Mostly Cloudy
5:14 PM 60.8 °F 55.4 °F 82% 30.05 in 10.0 mi NNE 3.5 mph - N/A   Mostly Cloudy
5:28 PM 60.8 °F 55.4 °F 82% 30.05 in 10.0 mi Calm Calm - N/A   Overcast
5:52 PM 61.0 °F 55.9 °F 83% 30.06 in 10.0 mi Calm Calm - N/A   Mostly Cloudy
6:52 PM 60.1 °F 57.0 °F 90% 30.06 in 10.0 mi Calm Calm - N/A   Overcast
7:52 PM 60.1 °F 57.0 °F 90% 30.06 in 9.0 mi Calm Calm - N/A   Overcast
8:52 PM 57.9 °F 55.9 °F 93% 30.06 in 5.0 mi Calm Calm - N/A   Partly Cloudy
9:09 PM 57.2 °F 55.4 °F 94% 30.07 in 3.0 mi Calm Calm - N/A   Mostly Cloudy
9:40 PM 57.2 °F 55.4 °F 94% 30.07 in 6.0 mi Calm Calm - N/A   Scattered Clouds
9:52 PM 57.9 °F 55.0 °F 90% 30.07 in 5.0 mi Calm Calm - N/A   Partly Cloudy
10:11 PM 57.2 °F 53.6 °F 88% 30.07 in 1.8 mi Calm Calm - N/A   Partly Cloudy
10:15 PM 57.2 °F 53.6 °F 88% 30.07 in 0.8 mi Calm Calm - N/A   Mist
10:34 PM 57.2 °F 53.6 °F 88% 30.07 in 1.2 mi Calm Calm - N/A   Scattered Clouds
10:52 PM 55.0 °F 53.1 °F 93% 30.08 in 1.5 mi Calm Calm - N/A   Scattered Clouds
11:15 PM 55.4 °F 53.6 °F 94% 30.07 in 0.8 mi Calm Calm - N/A   Overcast
11:21 PM 55.4 °F 53.6 °F 94% 30.07 in 2.0 mi Calm Calm - N/A   Overcast
11:29 PM 55.4 °F 53.6 °F 94% 30.07 in 6.0 mi Calm Calm - N/A   Overcast
11:52 PM 57.0 °F 54.0 °F 89% 30.07 in 5.0 mi Calm Calm - N/A   Overcast